| time (UTC) | temp F | wind direction | speed MPH | gust MPH | rain 1hr in | rain 24hr in | rain mn in | humidity % | barometer mb |
| 20260831095135 | 67 | 278 | 0.0 | 2.0 | 0.00 | 0.02 | 0.00 | 87 | 1019.3 |
| 20260831094636 | 67 | 248 | 0.0 | 1.0 | 0.00 | 0.02 | 0.00 | 88 | 1019.4 |
| 20260831094139 | 67 | 249 | 0.0 | 0.0 | 0.00 | 0.02 | 0.00 | 88 | 1019.3 |
| 20260831093639 | 67 | 249 | 0.0 | 0.0 | 0.00 | 0.02 | 0.00 | 88 | 1019.3 |
| 20260831092634 | 67 | 249 | 0.0 | 1.0 | 0.00 | 0.02 | 0.00 | 88 | 1019.1 |
| 20260831092135 | 68 | 249 | 0.0 | 1.0 | 0.00 | 0.02 | 0.00 | 87 | 1019.1 |
| 20260831091632 | 68 | 249 | 0.0 | 1.0 | 0.00 | 0.02 | 0.00 | 87 | 1019.1 |
| 20260831091131 | 68 | 249 | 0.0 | 1.0 | 0.00 | 0.02 | 0.00 | 87 | 1018.9 |
| 20260831090630 | 68 | 249 | 0.0 | 0.0 | 0.00 | 0.02 | 0.00 | 87 | 1018.9 |
| 20260831090129 | 68 | 249 | 0.0 | 0.0 | 0.00 | 0.02 | 0.00 | 87 | 1019.0 |
| 20260831085626 | 68 | 249 | 0.0 | 0.0 | 0.00 | 0.02 | 0.00 | 86 | 1019.1 |
| 20260831085123 | 68 | 249 | 0.0 | 1.0 | 0.00 | 0.02 | 0.00 | 86 | 1019.1 |
| 20260831084620 | 68 | 249 | 0.0 | 1.0 | 0.00 | 0.02 | 0.00 | 86 | 1019.0 |
| 20260831084347 | 68 | 249 | 0.0 | 1.0 | 0.00 | 0.02 | 0.00 | 85 | 1019.1 |
| 20260831083618 | 68 | 249 | 0.0 | 1.0 | 0.00 | 0.02 | 0.00 | 85 | 1019.1 |
| 20260831083116 | 69 | 248 | 0.0 | 1.0 | 0.00 | 0.02 | 0.00 | 86 | 1019.1 |
| 20260831082616 | 69 | 248 | 0.0 | 1.0 | 0.00 | 0.02 | 0.00 | 86 | 1019.1 |
| 20260831082113 | 69 | 248 | 0.0 | 1.0 | 0.00 | 0.02 | 0.00 | 86 | 1019.2 |
| 20260831081611 | 69 | 248 | 0.0 | 1.0 | 0.00 | 0.02 | 0.00 | 86 | 1019.3 |
| 20260831081110 | 69 | 248 | 0.0 | 1.0 | 0.00 | 0.02 | 0.00 | 86 | 1019.2 |
| 20260831080610 | 69 | 248 | 0.0 | 1.0 | 0.00 | 0.02 | 0.00 | 86 | 1019.2 |
| 20260831080108 | 69 | 248 | 0.0 | 1.0 | 0.00 | 0.02 | 0.00 | 86 | 1019.0 |
| 20260831075607 | 68 | 248 | 0.0 | 1.0 | 0.00 | 0.02 | 0.00 | 86 | 1018.9 |
| 20260831075327 | 68 | 248 | 0.0 | 1.0 | 0.00 | 0.02 | 0.00 | 86 | 1018.8 |
| 20260831074602 | 68 | 248 | 0.0 | 1.0 | 0.00 | 0.02 | 0.00 | 87 | 1018.9 |
| 20260831074059 | 68 | 240 | 0.0 | 1.0 | 0.00 | 0.02 | 0.00 | 88 | 1019.1 |
| 20260831073558 | 68 | 241 | 0.0 | 1.0 | 0.00 | 0.02 | 0.00 | 89 | 1019.1 |
| 20260831073544 | 68 | 241 | 0.0 | 1.0 | 0.00 | 0.02 | 0.00 | 90 | 1019.0 |
| 20260831072554 | 68 | 121 | 0.0 | 0.0 | 0.00 | 0.02 | 0.00 | 90 | 1019.0 |
| 20260831072051 | 68 | 121 | 0.0 | 0.0 | 0.00 | 0.02 | 0.00 | 90 | 1019.0 |
| 20260831071550 | 68 | 121 | 0.0 | 0.0 | 0.00 | 0.02 | 0.00 | 90 | 1019.0 |
| 20260831071048 | 68 | 121 | 0.0 | 0.0 | 0.00 | 0.02 | 0.00 | 90 | 1019.0 |
| 20260831070545 | 68 | 121 | 0.0 | 0.0 | 0.00 | 0.02 | 0.00 | 89 | 1019.0 |
| 20260831070048 | 68 | 121 | 0.0 | 0.0 | 0.00 | 0.02 | 0.00 | 89 | 1018.9 |
| 20260831065537 | 68 | 121 | 0.0 | 0.0 | 0.00 | 0.02 | 0.00 | 89 | 1018.9 |
| 20260831065031 | 68 | 121 | 0.0 | 0.0 | 0.00 | 0.02 | 0.00 | 90 | 1019.1 |
| 20260831064525 | 68 | 121 | 0.0 | 0.0 | 0.00 | 0.02 | 0.00 | 90 | 1019.2 |
| 20260831064024 | 68 | 121 | 0.0 | 0.0 | 0.00 | 0.02 | 0.00 | 90 | 1019.3 |
| 20260831063521 | 68 | 121 | 0.0 | 0.0 | 0.00 | 0.02 | 0.00 | 90 | 1019.4 |
| 20260831063020 | 68 | 121 | 0.0 | 0.0 | 0.00 | 0.02 | 0.00 | 91 | 1019.3 |
| 20260831062516 | 68 | 121 | 0.0 | 0.0 | 0.00 | 0.02 | 0.00 | 90 | 1019.3 |
| 20260831062016 | 68 | 121 | 0.0 | 0.0 | 0.00 | 0.02 | 0.00 | 90 | 1019.2 |
| 20260831061513 | 67 | 121 | 0.0 | 0.0 | 0.00 | 0.02 | 0.00 | 91 | 1019.2 |
| 20260831061014 | 67 | 121 | 0.0 | 0.0 | 0.00 | 0.02 | 0.00 | 91 | 1019.2 |
| 20260831060512 | 67 | 121 | 0.0 | 0.0 | 0.00 | 0.02 | 0.00 | 91 | 1019.1 |
| 20260831060015 | 67 | 121 | 0.0 | 0.0 | 0.00 | 0.02 | 0.00 | 92 | 1018.9 |
| 20260831055508 | 67 | 121 | 0.0 | 0.0 | 0.00 | 0.02 | 0.00 | 92 | 1019.1 |
| 20260831055007 | 67 | 121 | 0.0 | 0.0 | 0.00 | 0.02 | 0.00 | 92 | 1019.2 |
| 20260831054504 | 67 | 121 | 0.0 | 0.0 | 0.00 | 0.02 | 0.00 | 92 | 1019.1 |
| 20260831054006 | 67 | 121 | 0.0 | 0.0 | 0.00 | 0.02 | 0.00 | 92 | 1019.3 |
| 20260831053500 | 67 | 121 | 0.0 | 0.0 | 0.00 | 0.02 | 0.00 | 92 | 1019.3 |
| 20260831053000 | 67 | 121 | 0.0 | 0.0 | 0.00 | 0.02 | 0.00 | 92 | 1019.4 |
| 20260831052502 | 67 | 121 | 0.0 | 0.0 | 0.00 | 0.02 | 0.00 | 92 | 1019.4 |
| 20260831052217 | 67 | 121 | 0.0 | 0.0 | 0.00 | 0.02 | 0.00 | 92 | 1019.5 |
| 20260831051455 | 67 | 121 | 0.0 | 0.0 | 0.00 | 0.02 | 0.00 | 92 | 1019.4 |
| 20260831051212 | 67 | 121 | 0.0 | 0.0 | 0.00 | 0.02 | 0.00 | 92 | 1019.3 |
| 20260831050508 | 67 | 121 | 0.0 | 0.0 | 0.00 | 0.02 | 0.00 | 93 | 1019.1 |
| 20260831045953 | 68 | 121 | 0.0 | 0.0 | 0.00 | 0.02 | 0.00 | 93 | 1019.1 |
| 20260831045451 | 68 | 121 | 0.0 | 0.0 | 0.00 | 0.02 | 0.00 | 93 | 1019.2 |
| 20260831044951 | 68 | 121 | 0.0 | 0.0 | 0.00 | 0.02 | 0.00 | 93 | 1019.3 |
| 20260831044449 | 68 | 121 | 0.0 | 0.0 | 0.00 | 0.02 | 0.00 | 93 | 1019.3 |
| 20260831043950 | 69 | 121 | 0.0 | 0.0 | 0.00 | 0.02 | 0.00 | 94 | 1019.3 |
| 20260831043449 | 69 | 121 | 0.0 | 0.0 | 0.00 | 0.02 | 0.00 | 94 | 1019.2 |
| 20260831042950 | 69 | 121 | 0.0 | 0.0 | 0.00 | 0.02 | 0.00 | 94 | 1019.2 |
| 20260831042448 | 69 | 121 | 0.0 | 0.0 | 0.00 | 0.02 | 0.00 | 94 | 1019.2 |
| 20260831041949 | 69 | 121 | 0.0 | 0.0 | 0.00 | 0.02 | 0.00 | 94 | 1019.1 |
| 20260831041449 | 69 | 121 | 0.0 | 0.0 | 0.00 | 0.02 | 0.00 | 94 | 1019.1 |
| 20260831040948 | 69 | 121 | 0.0 | 0.0 | 0.00 | 0.02 | 0.00 | 94 | 1019.1 |
| 20260831040448 | 70 | 121 | 0.0 | 0.0 | 0.00 | 0.02 | 0.00 | 94 | 1018.9 |
| 20260831035949 | 70 | 121 | 0.0 | 0.0 | 0.00 | 0.02 | 0.02 | 94 | 1018.8 |
| 20260831035450 | 70 | 121 | 0.0 | 0.0 | 0.00 | 0.02 | 0.02 | 94 | 1018.9 |
| 20260831034944 | 70 | 121 | 0.0 | 0.0 | 0.00 | 0.02 | 0.02 | 94 | 1018.9 |
| 20260831034445 | 70 | 121 | 0.0 | 0.0 | 0.00 | 0.02 | 0.02 | 94 | 1018.9 |
| 20260831033944 | 70 | 121 | 0.0 | 0.0 | 0.00 | 0.02 | 0.02 | 94 | 1018.9 |
| 20260831033445 | 71 | 121 | 0.0 | 0.0 | 0.00 | 0.02 | 0.02 | 94 | 1018.9 |
| 20260831032958 | 71 | 121 | 0.0 | 0.0 | 0.00 | 0.02 | 0.02 | 94 | 1019.1 |
| 20260831032444 | 71 | 121 | 0.0 | 0.0 | 0.00 | 0.02 | 0.02 | 94 | 1019.1 |
| 20260831031946 | 71 | 121 | 0.0 | 0.0 | 0.00 | 0.02 | 0.02 | 94 | 1018.9 |
| 20260831031446 | 71 | 121 | 0.0 | 0.0 | 0.00 | 0.02 | 0.02 | 94 | 1019.2 |
| 20260831030944 | 71 | 121 | 0.0 | 0.0 | 0.00 | 0.02 | 0.02 | 94 | 1019.0 |
| 20260831030459 | 71 | 121 | 0.0 | 0.0 | 0.00 | 0.02 | 0.02 | 94 | 1019.0 |
| 20260831025944 | 71 | 121 | 0.0 | 0.0 | 0.00 | 0.02 | 0.02 | 94 | 1019.1 |
| 20260831025444 | 71 | 121 | 0.0 | 0.0 | 0.00 | 0.02 | 0.02 | 94 | 1019.2 |
| 20260831024946 | 71 | 121 | 0.0 | 0.0 | 0.00 | 0.02 | 0.02 | 94 | 1019.2 |
| 20260831024713 | 72 | 121 | 0.0 | 0.0 | 0.00 | 0.02 | 0.02 | 94 | 1019.3 |
| 20260831024445 | 71 | 121 | 0.0 | 0.0 | 0.00 | 0.02 | 0.02 | 94 | 1019.2 |
| 20260831023444 | 72 | 121 | 0.0 | 0.0 | 0.00 | 0.02 | 0.02 | 94 | 1019.3 |
| 20260831022955 | 72 | 121 | 0.0 | 0.0 | 0.00 | 0.02 | 0.02 | 94 | 1019.4 |
| 20260831022709 | 72 | 121 | 0.0 | 0.0 | 0.00 | 0.02 | 0.02 | 94 | 1019.4 |
| 20260831021945 | 72 | 121 | 0.0 | 0.0 | 0.00 | 0.02 | 0.02 | 94 | 1019.4 |
| 20260831021934 | 72 | 121 | 0.0 | 0.0 | 0.01 | 0.02 | 0.02 | 94 | 1019.2 |
| 20260831020941 | 72 | 121 | 0.0 | 0.0 | 0.01 | 0.02 | 0.02 | 94 | 1019.3 |
| 20260831020453 | 72 | 121 | 0.0 | 0.0 | 0.01 | 0.02 | 0.02 | 94 | 1019.5 |
| 20260831015940 | 72 | 121 | 0.0 | 0.0 | 0.01 | 0.02 | 0.02 | 94 | 1019.5 |
| 20260831015440 | 72 | 121 | 0.0 | 0.0 | 0.01 | 0.02 | 0.02 | 94 | 1019.5 |
| 20260831014938 | 72 | 121 | 0.0 | 0.0 | 0.01 | 0.02 | 0.02 | 94 | 1019.6 |
| 20260831014440 | 72 | 121 | 0.0 | 0.0 | 0.01 | 0.02 | 0.02 | 94 | 1019.7 |
| 20260831014159 | 72 | 121 | 0.0 | 0.0 | 0.01 | 0.02 | 0.02 | 94 | 1019.6 |
| 20260831013443 | 72 | 121 | 0.0 | 0.0 | 0.02 | 0.02 | 0.02 | 93 | 1019.5 |
| 20260831012940 | 72 | 121 | 0.0 | 0.0 | 0.02 | 0.02 | 0.02 | 93 | 1019.4 |
| 20260831012437 | 72 | 121 | 0.0 | 0.0 | 0.02 | 0.02 | 0.02 | 93 | 1019.4 |
| 20260831011935 | 73 | 121 | 0.0 | 0.0 | 0.02 | 0.02 | 0.02 | 93 | 1019.4 |
| 20260831011435 | 73 | 121 | 0.0 | 0.0 | 0.01 | 0.01 | 0.01 | 93 | 1019.2 |
| 20260831011153 | 73 | 121 | 0.0 | 0.0 | 0.01 | 0.01 | 0.01 | 93 | 1019.2 |
| 20260831010430 | 73 | 121 | 0.0 | 0.0 | 0.01 | 0.01 | 0.01 | 92 | 1019.1 |
| 20260831005930 | 73 | 121 | 0.0 | 0.0 | 0.01 | 0.01 | 0.01 | 92 | 1019.0 |
| 20260831005430 | 73 | 121 | 0.0 | 0.0 | 0.01 | 0.01 | 0.01 | 92 | 1018.8 |
| 20260831005411 | 73 | 121 | 0.0 | 0.0 | 0.01 | 0.01 | 0.01 | 92 | 1018.7 |
| 20260831004428 | 73 | 121 | 0.0 | 0.0 | 0.01 | 0.01 | 0.01 | 92 | 1018.8 |
| 20260831003928 | 73 | 121 | 0.0 | 0.0 | 0.01 | 0.01 | 0.01 | 91 | 1018.7 |
| 20260831003648 | 73 | 121 | 0.0 | 0.0 | 0.00 | 0.00 | 0.00 | 91 | 1018.6 |
| 20260831002925 | 73 | 121 | 0.0 | 0.0 | 0.00 | 0.00 | 0.00 | 91 | 1018.6 |
| 20260831002646 | 73 | 121 | 0.0 | 0.0 | 0.00 | 0.00 | 0.00 | 90 | 1018.5 |
| 20260831001922 | 74 | 121 | 0.0 | 0.0 | 0.00 | 0.00 | 0.00 | 90 | 1018.4 |
| 20260831001421 | 74 | 121 | 0.0 | 0.0 | 0.00 | 0.00 | 0.00 | 89 | 1018.5 |
| 20260831000917 | 74 | 121 | 0.0 | 0.0 | 0.00 | 0.00 | 0.00 | 89 | 1018.4 |
| 20260831000634 | 74 | 121 | 0.0 | 0.0 | 0.00 | 0.00 | 0.00 | 88 | 1018.4 |
| 20260831000139 | 74 | 121 | 0.0 | 0.0 | 0.00 | 0.00 | 0.00 | 88 | 1018.3 |
| 20260830235642 | 74 | 121 | 0.0 | 0.0 | 0.00 | 0.00 | 0.00 | 87 | 1018.2 |
| 20260830234906 | 74 | 121 | 0.0 | 0.0 | 0.00 | 0.00 | 0.00 | 87 | 1018.1 |
| 20260830234356 | 75 | 121 | 0.0 | 0.0 | 0.00 | 0.00 | 0.00 | 86 | 1018.0 |
| 20260830233850 | 75 | 121 | 0.0 | 0.0 | 0.00 | 0.00 | 0.00 | 86 | 1017.9 |
| 20260830233345 | 75 | 121 | 0.0 | 0.0 | 0.00 | 0.00 | 0.00 | 86 | 1017.9 |
| 20260830232833 | 75 | 121 | 0.0 | 0.0 | 0.00 | 0.00 | 0.00 | 86 | 1017.9 |
| 20260830232328 | 75 | 121 | 0.0 | 0.0 | 0.00 | 0.00 | 0.00 | 86 | 1017.9 |
| 20260830231822 | 75 | 121 | 0.0 | 0.0 | 0.00 | 0.00 | 0.00 | 85 | 1017.9 |
| 20260830231312 | 76 | 121 | 0.0 | 0.0 | 0.00 | 0.00 | 0.00 | 85 | 1017.8 |
| 20260830230806 | 76 | 121 | 0.0 | 0.0 | 0.00 | 0.00 | 0.00 | 85 | 1017.9 |
| 20260830230532 | 76 | 121 | 0.0 | 0.0 | 0.00 | 0.00 | 0.00 | 84 | 1017.8 |
| 20260830225750 | 76 | 121 | 0.0 | 0.0 | 0.00 | 0.00 | 0.00 | 84 | 1017.8 |
| 20260830225247 | 76 | 121 | 0.0 | 0.0 | 0.00 | 0.00 | 0.00 | 83 | 1018.0 |
| 20260830224738 | 76 | 121 | 0.0 | 0.0 | 0.00 | 0.00 | 0.00 | 83 | 1018.0 |
| 20260830224229 | 77 | 121 | 0.0 | 0.0 | 0.00 | 0.00 | 0.00 | 83 | 1018.0 |
| 20260830223722 | 77 | 121 | 0.0 | 0.0 | 0.00 | 0.00 | 0.00 | 83 | 1018.0 |
| 20260830223437 | 77 | 121 | 0.0 | 0.0 | 0.00 | 0.00 | 0.00 | 83 | 1017.9 |
| 20260830222927 | 77 | 121 | 0.0 | 0.0 | 0.00 | 0.00 | 0.00 | 82 | 1017.9 |
| 20260830222424 | 77 | 121 | 0.0 | 0.0 | 0.00 | 0.00 | 0.00 | 82 | 1018.0 |
| 20260830221654 | 77 | 121 | 0.0 | 0.0 | 0.00 | 0.00 | 0.00 | 82 | 1018.1 |
| 20260830221144 | 78 | 121 | 0.0 | 0.0 | 0.00 | 0.00 | 0.00 | 81 | 1017.9 |
| 20260830220638 | 78 | 121 | 0.0 | 1.0 | 0.00 | 0.00 | 0.00 | 80 | 1018.1 |
| 20260830220132 | 78 | 121 | 0.0 | 1.0 | 0.00 | 0.00 | 0.00 | 80 | 1018.1 |
| 20260830215626 | 78 | 121 | 0.0 | 1.0 | 0.00 | 0.00 | 0.00 | 80 | 1018.1 |
| 20260830215122 | 78 | 121 | 0.0 | 5.0 | 0.00 | 0.00 | 0.00 | 80 | 1018.0 |
| 20260830214623 | 78 | 121 | 0.0 | 5.0 | 0.00 | 0.00 | 0.00 | 79 | 1018.2 |
| 20260830214340 | 78 | 202 | 1.0 | 5.0 | 0.00 | 0.00 | 0.00 | 79 | 1018.1 |
| 20260830213620 | 78 | 211 | 0.0 | 5.0 | 0.00 | 0.00 | 0.00 | 79 | 1018.0 |
| 20260830213351 | 78 | 219 | 0.0 | 3.0 | 0.00 | 0.00 | 0.00 | 79 | 1018.0 |
| 20260830212848 | 79 | 219 | 0.0 | 3.0 | 0.00 | 0.00 | 0.00 | 78 | 1017.9 |
| 20260830212120 | 79 | 173 | 0.0 | 5.0 | 0.00 | 0.00 | 0.00 | 79 | 1017.8 |
| 20260830211621 | 79 | 173 | 1.0 | 5.0 | 0.00 | 0.00 | 0.00 | 78 | 1017.8 |
| 20260830211120 | 79 | 218 | 1.0 | 7.0 | 0.00 | 0.00 | 0.00 | 78 | 1017.9 |
| 20260830210621 | 79 | 218 | 1.0 | 7.0 | 0.00 | 0.00 | 0.00 | 77 | 1017.9 |
| 20260830210120 | 79 | 265 | 0.0 | 3.0 | 0.00 | 0.00 | 0.00 | 78 | 1017.9 |
| 20260830205619 | 79 | 269 | 0.0 | 3.0 | 0.00 | 0.00 | 0.00 | 79 | 1018.0 |
| 20260830205118 | 79 | 200 | 0.0 | 1.0 | 0.00 | 0.00 | 0.00 | 78 | 1018.0 |
| 20260830204617 | 79 | 200 | 0.0 | 2.0 | 0.00 | 0.00 | 0.00 | 78 | 1018.0 |
| 20260830204339 | 79 | 204 | 0.0 | 4.0 | 0.00 | 0.00 | 0.00 | 78 | 1018.1 |
| 20260830203830 | 79 | 105 | 1.0 | 4.0 | 0.00 | 0.00 | 0.00 | 78 | 1018.3 |
| 20260830203107 | 79 | 93 | 0.0 | 4.0 | 0.00 | 0.00 | 0.00 | 78 | 1018.2 |
| 20260830202607 | 79 | 83 | 0.0 | 4.0 | 0.00 | 0.00 | 0.00 | 79 | 1018.4 |
| 20260830202103 | 79 | 20 | 1.0 | 4.0 | 0.00 | 0.00 | 0.00 | 80 | 1018.3 |
| 20260830201602 | 78 | 224 | 1.0 | 4.0 | 0.00 | 0.00 | 0.00 | 80 | 1018.3 |
| 20260830201102 | 78 | 135 | 1.0 | 5.0 | 0.00 | 0.00 | 0.00 | 80 | 1018.4 |
| 20260830200822 | 78 | 194 | 2.0 | 5.0 | 0.00 | 0.00 | 0.00 | 78 | 1018.5 |
| 20260830200112 | 78 | 205 | 2.0 | 6.0 | 0.00 | 0.00 | 0.00 | 79 | 1018.6 |
| 20260830195603 | 78 | 236 | 2.0 | 6.0 | 0.00 | 0.00 | 0.00 | 79 | 1018.7 |
| 20260830195331 | 78 | 198 | 2.0 | 6.0 | 0.00 | 0.00 | 0.00 | 80 | 1018.7 |
| 20260830194600 | 78 | 230 | 1.0 | 6.0 | 0.00 | 0.00 | 0.00 | 80 | 1018.7 |
| 20260830194318 | 78 | 38 | 1.0 | 4.0 | 0.00 | 0.00 | 0.00 | 80 | 1018.8 |
| 20260830193558 | 78 | 38 | 1.0 | 4.0 | 0.00 | 0.00 | 0.00 | 80 | 1018.8 |
| 20260830193058 | 78 | 196 | 1.0 | 3.0 | 0.00 | 0.00 | 0.00 | 80 | 1019.0 |
| 20260830192555 | 78 | 134 | 1.0 | 8.0 | 0.00 | 0.00 | 0.00 | 80 | 1018.9 |
| 20260830192056 | 78 | 113 | 1.0 | 8.0 | 0.00 | 0.00 | 0.00 | 80 | 1018.8 |
| 20260830191555 | 77 | 144 | 1.0 | 8.0 | 0.00 | 0.00 | 0.00 | 82 | 1019.0 |
| 20260830191056 | 77 | 27 | 2.0 | 8.0 | 0.00 | 0.00 | 0.00 | 80 | 1019.3 |
| 20260830190816 | 77 | 49 | 1.0 | 4.0 | 0.00 | 0.00 | 0.00 | 80 | 1019.3 |
| 20260830190110 | 77 | 196 | 1.0 | 4.0 | 0.00 | 0.00 | 0.00 | 80 | 1019.5 |
| 20260830185557 | 77 | 69 | 1.0 | 4.0 | 0.00 | 0.00 | 0.00 | 82 | 1019.4 |
| 20260830185056 | 77 | 167 | 1.0 | 4.0 | 0.00 | 0.00 | 0.00 | 81 | 1019.4 |
| 20260830184553 | 76 | 63 | 1.0 | 4.0 | 0.00 | 0.00 | 0.00 | 81 | 1019.5 |
| 20260830184052 | 76 | 172 | 0.0 | 3.0 | 0.00 | 0.00 | 0.00 | 82 | 1019.6 |
| 20260830183552 | 76 | 165 | 0.0 | 2.0 | 0.00 | 0.00 | 0.00 | 83 | 1019.7 |
| 20260830183053 | 76 | 116 | 0.0 | 5.0 | 0.00 | 0.00 | 0.00 | 83 | 1019.8 |
| 20260830182551 | 75 | 116 | 0.0 | 5.0 | 0.00 | 0.00 | 0.00 | 82 | 1019.9 |
| 20260830182051 | 75 | 209 | 0.0 | 5.0 | 0.00 | 0.00 | 0.00 | 82 | 1020.1 |
| 20260830181551 | 75 | 209 | 1.0 | 5.0 | 0.00 | 0.00 | 0.00 | 82 | 1020.1 |
| 20260830181048 | 75 | 53 | 0.0 | 5.0 | 0.00 | 0.00 | 0.00 | 81 | 1020.1 |
| 20260830180555 | 76 | 41 | 1.0 | 5.0 | 0.00 | 0.00 | 0.00 | 81 | 1020.2 |
| 20260830180040 | 76 | 32 | 1.0 | 5.0 | 0.00 | 0.00 | 0.00 | 80 | 1020.2 |
| 20260830175540 | 76 | 32 | 1.0 | 5.0 | 0.00 | 0.00 | 0.00 | 80 | 1020.2 |
| 20260830175041 | 76 | 251 | 2.0 | 5.0 | 0.00 | 0.00 | 0.00 | 79 | 1020.3 |
| 20260830174541 | 76 | 256 | 1.0 | 5.0 | 0.00 | 0.00 | 0.00 | 80 | 1020.5 |
| 20260830174040 | 76 | 237 | 1.0 | 5.0 | 0.00 | 0.00 | 0.00 | 80 | 1020.5 |
| 20260830173807 | 76 | 101 | 1.0 | 4.0 | 0.00 | 0.00 | 0.00 | 80 | 1020.3 |
| 20260830173306 | 76 | 217 | 1.0 | 4.0 | 0.00 | 0.00 | 0.00 | 80 | 1020.4 |
| 20260830172538 | 76 | 91 | 1.0 | 5.0 | 0.00 | 0.00 | 0.00 | 80 | 1020.6 |
| 20260830172306 | 76 | 187 | 1.0 | 5.0 | 0.00 | 0.00 | 0.00 | 80 | 1020.6 |
| 20260830171752 | 76 | 32 | 1.0 | 5.0 | 0.00 | 0.00 | 0.00 | 80 | 1020.6 |
| 20260830171035 | 75 | 61 | 1.0 | 5.0 | 0.00 | 0.00 | 0.00 | 80 | 1020.6 |
| 20260830170547 | 75 | 232 | 1.0 | 4.0 | 0.00 | 0.00 | 0.00 | 81 | 1020.6 |
| 20260830170035 | 74 | 207 | 1.0 | 4.0 | 0.00 | 0.00 | 0.00 | 81 | 1020.6 |
| 20260830165535 | 74 | 57 | 0.0 | 4.0 | 0.00 | 0.00 | 0.00 | 81 | 1020.6 |
| 20260830165032 | 74 | 55 | 0.0 | 4.0 | 0.00 | 0.00 | 0.00 | 81 | 1020.6 |
| 20260830164532 | 73 | 53 | 1.0 | 4.0 | 0.00 | 0.00 | 0.00 | 80 | 1020.7 |
| 20260830164032 | 73 | 42 | 1.0 | 4.0 | 0.00 | 0.00 | 0.00 | 79 | 1020.8 |
| 20260830163533 | 74 | 43 | 1.0 | 4.0 | 0.00 | 0.00 | 0.00 | 79 | 1020.7 |
| 20260830163032 | 73 | 213 | 1.0 | 4.0 | 0.00 | 0.00 | 0.00 | 79 | 1020.7 |
| 20260830162801 | 73 | 184 | 1.0 | 4.0 | 0.00 | 0.00 | 0.00 | 79 | 1020.6 |
| 20260830162032 | 73 | 123 | 1.0 | 4.0 | 0.00 | 0.00 | 0.00 | 77 | 1020.7 |
| 20260830161533 | 73 | 286 | 1.0 | 5.0 | 0.00 | 0.00 | 0.00 | 77 | 1020.8 |
| 20260830161032 | 74 | 215 | 1.0 | 5.0 | 0.00 | 0.00 | 0.00 | 76 | 1021.0 |
| 20260830160532 | 74 | 140 | 1.0 | 3.0 | 0.00 | 0.00 | 0.00 | 76 | 1021.1 |
| 20260830160302 | 74 | 140 | 1.0 | 3.0 | 0.00 | 0.00 | 0.00 | 75 | 1021.0 |
| 20260830155532 | 75 | 88 | 0.0 | 3.0 | 0.00 | 0.00 | 0.00 | 74 | 1021.3 |
| 20260830155033 | 75 | 180 | 0.0 | 3.0 | 0.00 | 0.00 | 0.00 | 74 | 1021.2 |
| 20260830154532 | 75 | 180 | 0.0 | 3.0 | 0.00 | 0.00 | 0.00 | 74 | 1021.2 |
| 20260830154032 | 76 | 180 | 1.0 | 3.0 | 0.00 | 0.00 | 0.00 | 72 | 1021.3 |
| 20260830153542 | 76 | 178 | 1.0 | 3.0 | 0.00 | 0.00 | 0.00 | 72 | 1021.3 |
| 20260830153031 | 76 | 184 | 1.0 | 4.0 | 0.00 | 0.00 | 0.00 | 72 | 1021.2 |
| 20260830152531 | 76 | 188 | 1.0 | 4.0 | 0.00 | 0.00 | 0.00 | 72 | 1021.3 |
| 20260830152031 | 76 | 188 | 1.0 | 4.0 | 0.00 | 0.00 | 0.00 | 70 | 1021.4 |
| 20260830151531 | 77 | 185 | 1.0 | 4.0 | 0.00 | 0.00 | 0.00 | 67 | 1021.4 |
| 20260830151257 | 77 | 227 | 1.0 | 4.0 | 0.00 | 0.00 | 0.00 | 68 | 1021.4 |
| 20260830150532 | 76 | 220 | 1.0 | 4.0 | 0.00 | 0.00 | 0.00 | 67 | 1021.5 |
| 20260830150031 | 76 | 107 | 1.0 | 3.0 | 0.00 | 0.00 | 0.00 | 69 | 1021.6 |
| 20260830145532 | 75 | 142 | 0.0 | 3.0 | 0.00 | 0.00 | 0.00 | 72 | 1021.6 |
| 20260830145031 | 75 | 142 | 1.0 | 3.0 | 0.00 | 0.00 | 0.00 | 70 | 1021.7 |
| 20260830144531 | 75 | 141 | 1.0 | 3.0 | 0.00 | 0.00 | 0.00 | 72 | 1021.7 |
| 20260830144033 | 75 | 138 | 1.0 | 3.0 | 0.00 | 0.00 | 0.00 | 70 | 1021.8 |
| 20260830143530 | 75 | 161 | 1.0 | 4.0 | 0.00 | 0.00 | 0.00 | 69 | 1021.7 |
| 20260830143028 | 76 | 165 | 1.0 | 4.0 | 0.00 | 0.00 | 0.00 | 68 | 1021.7 |
| 20260830142527 | 75 | 163 | 1.0 | 2.0 | 0.00 | 0.00 | 0.00 | 71 | 1021.7 |
| 20260830142028 | 74 | 159 | 0.0 | 2.0 | 0.00 | 0.00 | 0.00 | 70 | 1021.7 |
| 20260830141526 | 74 | 159 | 0.0 | 2.0 | 0.00 | 0.00 | 0.00 | 68 | 1021.7 |
| 20260830141032 | 74 | 163 | 1.0 | 2.0 | 0.00 | 0.00 | 0.00 | 69 | 1021.7 |
| 20260830141025 | 74 | 163 | 0.0 | 2.0 | 0.00 | 0.00 | 0.00 | 71 | 1021.7 |
| 20260830140017 | 74 | 152 | 1.0 | 4.0 | 0.00 | 0.00 | 0.00 | 70 | 1021.8 |
| 20260830135512 | 74 | 156 | 1.0 | 4.0 | 0.00 | 0.00 | 0.00 | 71 | 1021.8 |
| 20260830135009 | 74 | 90 | 1.0 | 4.0 | 0.00 | 0.00 | 0.00 | 70 | 1021.8 |
| 20260830134739 | 73 | 89 | 1.0 | 4.0 | 0.00 | 0.00 | 0.00 | 71 | 1021.8 |
| 20260830134010 | 73 | 197 | 1.0 | 4.0 | 0.00 | 0.00 | 0.00 | 73 | 1021.9 |
| 20260830133509 | 72 | 200 | 1.0 | 4.0 | 0.00 | 0.00 | 0.00 | 72 | 1022.0 |
| 20260830133011 | 72 | 61 | 1.0 | 3.0 | 0.00 | 0.00 | 0.00 | 73 | 1022.0 |
| 20260830132506 | 71 | 290 | 1.0 | 3.0 | 0.00 | 0.00 | 0.00 | 72 | 1022.0 |
| 20260830132005 | 70 | 304 | 1.0 | 3.0 | 0.00 | 0.00 | 0.00 | 73 | 1022.1 |
| 20260830131502 | 70 | 175 | 0.0 | 2.0 | 0.00 | 0.00 | 0.00 | 82 | 1022.1 |
| 20260830131002 | 69 | 141 | 0.0 | 2.0 | 0.00 | 0.00 | 0.00 | 83 | 1022.1 |
| 20260830130951 | 68 | 141 | 0.0 | 2.0 | 0.00 | 0.00 | 0.00 | 83 | 1022.2 |
| 20260830130002 | 67 | 141 | 0.0 | 2.0 | 0.00 | 0.00 | 0.00 | 84 | 1022.3 |
| 20260830125948 | 67 | 141 | 0.0 | 2.0 | 0.00 | 0.00 | 0.00 | 86 | 1022.4 |
| 20260830125001 | 65 | 141 | 0.0 | 2.0 | 0.00 | 0.00 | 0.00 | 89 | 1022.4 |
| 20260830124503 | 64 | 141 | 0.0 | 2.0 | 0.00 | 0.00 | 0.00 | 92 | 1022.4 |
| 20260830123957 | 64 | 141 | 0.0 | 2.0 | 0.00 | 0.00 | 0.00 | 94 | 1022.5 |
| 20260830123451 | 63 | 141 | 0.0 | 0.0 | 0.00 | 0.00 | 0.00 | 95 | 1022.5 |
| 20260830122948 | 62 | 141 | 0.0 | 0.0 | 0.00 | 0.00 | 0.00 | 95 | 1022.4 |
| 20260830122656 | 61 | 141 | 0.0 | 0.0 | 0.00 | 0.00 | 0.00 | 95 | 1022.3 |
| 20260830121929 | 61 | 141 | 0.0 | 0.0 | 0.00 | 0.00 | 0.00 | 95 | 1022.5 |
| 20260830121419 | 61 | 141 | 0.0 | 0.0 | 0.00 | 0.00 | 0.00 | 95 | 1022.6 |
| 20260830121134 | 60 | 141 | 0.0 | 0.0 | 0.00 | 0.00 | 0.00 | 95 | 1022.5 |
| 20260830120420 | 60 | 141 | 0.0 | 0.0 | 0.00 | 0.00 | 0.00 | 95 | 1022.5 |
| 20260830115858 | 60 | 141 | 0.0 | 0.0 | 0.00 | 0.00 | 0.00 | 95 | 1022.5 |
| 20260830115614 | 60 | 141 | 0.0 | 0.0 | 0.00 | 0.00 | 0.00 | 95 | 1022.6 |
| 20260830114845 | 60 | 141 | 0.0 | 0.0 | 0.00 | 0.00 | 0.00 | 95 | 1022.6 |
| 20260830114335 | 59 | 141 | 0.0 | 0.0 | 0.00 | 0.00 | 0.00 | 95 | 1022.5 |
| 20260830114053 | 59 | 141 | 0.0 | 0.0 | 0.00 | 0.00 | 0.00 | 95 | 1022.6 |
| 20260830113336 | 59 | 141 | 0.0 | 0.0 | 0.00 | 0.00 | 0.00 | 95 | 1022.7 |
| 20260830113034 | 59 | 141 | 0.0 | 0.0 | 0.00 | 0.00 | 0.00 | 95 | 1022.7 |
| 20260830112307 | 59 | 141 | 0.0 | 0.0 | 0.00 | 0.00 | 0.00 | 94 | 1022.7 |
| 20260830112022 | 59 | 141 | 0.0 | 0.0 | 0.00 | 0.00 | 0.00 | 94 | 1022.7 |
| 20260830111251 | 59 | 141 | 0.0 | 0.0 | 0.00 | 0.00 | 0.00 | 94 | 1022.6 |
| 20260830110745 | 58 | 141 | 0.0 | 0.0 | 0.00 | 0.00 | 0.00 | 94 | 1022.5 |
| 20260830110515 | 58 | 141 | 0.0 | 0.0 | 0.00 | 0.00 | 0.00 | 94 | 1022.5 |
| 20260830105729 | 58 | 141 | 0.0 | 0.0 | 0.00 | 0.00 | 0.00 | 94 | 1022.4 |
| 20260830105223 | 58 | 141 | 0.0 | 0.0 | 0.00 | 0.00 | 0.00 | 94 | 1022.5 |
| 20260830104717 | 58 | 141 | 0.0 | 0.0 | 0.00 | 0.00 | 0.00 | 94 | 1022.5 |
| 20260830104207 | 58 | 141 | 0.0 | 0.0 | 0.00 | 0.00 | 0.00 | 94 | 1022.3 |
| 20260830103701 | 58 | 141 | 0.0 | 0.0 | 0.00 | 0.00 | 0.00 | 94 | 1022.3 |
| 20260830103155 | 58 | 141 | 0.0 | 0.0 | 0.00 | 0.00 | 0.00 | 94 | 1022.2 |
| 20260830102645 | 58 | 141 | 0.0 | 0.0 | 0.00 | 0.00 | 0.00 | 94 | 1022.4 |
| 20260830102140 | 58 | 141 | 0.0 | 0.0 | 0.00 | 0.00 | 0.00 | 94 | 1022.5 |
| 20260830101634 | 59 | 141 | 0.0 | 0.0 | 0.00 | 0.00 | 0.00 | 94 | 1022.4 |
| 20260830101124 | 59 | 141 | 0.0 | 0.0 | 0.00 | 0.00 | 0.00 | 94 | 1022.4 |
| 20260830100622 | 59 | 141 | 0.0 | 0.0 | 0.00 | 0.00 | 0.00 | 94 | 1022.3 |
| 20260830100120 | 59 | 141 | 0.0 | 0.0 | 0.00 | 0.00 | 0.00 | 94 | 1022.4 |
| 20260830095616 | 59 | 141 | 0.0 | 0.0 | 0.00 | 0.00 | 0.00 | 94 | 1022.6 |